Tracking 34408 objects as of 14-Jun-2026
HD Live streaming from Space Station
objects crossing your sky now

DELTA 1 DEB

Track DELTA 1 DEB now!
10-day predictions


NORAD ID: 14883
Int'l Code: 1973-086GS
Perigee: 1,488.9 km
Apogee: 1,885.2 km
Inclination: 102.0 °
Period: 120.0 minutes
Semi major axis: 8058 km
RCS: 0.0421 m2 (small)
Launch date: November 6, 1973
Source: United States (US)
Launch site: AIR FORCE WESTERN TEST RANGE (AFWTR)

Note: This is SATELLITE DEBRIS
Your satellite tracking list
Your tracking list is empty




NASA's NSSDC Master Catalog

Two Line Element Set (TLE):
1 14883U 73086GS  26164.78898439 -.00000070  00000-0 -34909-3 0  9990
2 14883 101.9883   8.7086 0245894 160.1138 218.3472 12.00206680627194
Source of the keplerian elements: AFSPC